Tracking 19279 objects as of 13-Nov-2018
HD Live streaming from Space Station
objects crossing your sky now

FLOCK 3M 3

Track FLOCK 3M 3 now!
10-day predictions
FLOCK 3M 3 is classified as:


NORAD ID: 42996
Int'l Code: 2017-068K
Perigee: 503.3 km
Apogee: 525.1 km
Inclination: 97.4 °
Period: 94.8 minutes
Semi major axis: 6885 km
RCS: Unknown
Launch date: October 31, 2017
Source: United States (US)
Launch site: AIR FORCE WESTERN TEST RANGE (AFWTR)
aabbcc
Your satellite tracking list
Your tracking list is empty




NASA's NSSDC Master Catalog

Two Line Element Set (TLE):
1 42996U 17068K   18316.26650213  .00002117  00000-0  10236-3 0  9992
2 42996  97.3617  65.0603 0015869 357.7356  33.8040 15.19593811 57126
Source of the keplerian elements: AFSPC